[Iaude] MPEC B106: 2022 QU1 [a=1.25,e=0.66,i=38.9,H=20.67]

mpec at marsden.cfa.harvard.edu mpec at marsden.cfa.harvard.edu
Tue Jan 23 09:36:00 EST 2024


M.P.E.C. 2024-B106                             Issued 2024 January 23, 14:34 UT

     The Minor Planet Electronic Circulars contain information on unusual
         minor planets, routine data on comets and natural satellites,
         and occasional editorial announcements.  They are published
    on behalf of Division F of the International Astronomical Union by the
          Minor Planet Center, Smithsonian Astrophysical Observatory,
                          Cambridge, MA 02138, U.S.A.
			  
             Prepared using the Tamkin Foundation Computer Network

                              MPC at CFA.HARVARD.EDU
            URL https://www.minorplanetcenter.net/    ISSN 1523-6714

                                    2022 QU1                                    


                           Revision to MPEC 2022-Q63                            

Additional Observations:
     K22Q01U  C2011 08 24.57063723 03 04.913+30 52 44.00         21.06GVEB106F51
     K22Q01U  C2011 08 24.58133623 03 02.514+30 52 46.52         22.49GVEB106F51
     K22Q01U  C2011 08 29.52615822 44 55.133+31 02 37.12         22.15GVEB106F51
     K22Q01U  C2011 09 05.28009422 21 14.102+30 37 45.25         22.98GVEB106F51
     K22Q01U  C2011 09 05.29155922 21 11.712+30 37 40.84         21.55GVEB106F51
     K22Q01U  C2015 08 21.30910 19 46 30.635-21 09 40.90         18.7 iLEB106F51
     K22Q01U  C2015 08 21.33224 19 46 26.552-21 06 42.35         18.8 iLEB106F51
     K22Q01U  C2015 08 21.34325 19 46 24.621-21 05 17.19         18.6 iLEB106F51

Observer details:
F51 Pan-STARRS 1, Haleakala.  Observers J. Herman, T. Lowe, P. Minguez, A.
    Schultz, I. Smith, B. Gibson, T. Goggia, N. Primak, M. Willman.  Measurers
    K. Chambers, T. de Boer, J. Fairlamb, H. Gao, M. Huber, C.-C. Lin, E.
    Magnier, Y. Ramanjooloo, R. Wainscoat, R. Weryk, S. Chastel, L. Denneau,
    H. Flewelling, E. Lilly, C. Waters.  1.8-m Ritchey-Chretien + CCD.

First and last observations above in comparison with prediction:
Residuals in seconds of arc (or two decimals in degrees), reference and Delta-T
110824 F51 0.11- 0.12-    150821 F51 0.95- 0.80-    MPO725085   +0.02 days

Orbital elements:
2022 QU1                                                 Earth MOID = 0.0913 AU
Epoch 2023 Sept. 13.0 TT = JDT 2460200.5                Veres                   
M 334.80446              (2000.0)            P               Q                  
n   0.70890816     Peri.  231.89822     -0.86250095     +0.33145410             
a   1.2456883      Node   322.47067     +0.09567622     -0.63521686             
e   0.6643977      Incl.   38.88381     -0.49692874     -0.69759424             
P   1.39           H   20.67          G   0.15           U   0                  
Residuals in seconds of arc
110824 F51  0.0   0.1+    220821 654  0.1+  0.1-    220825 H36  0.0   0.3+
110824 F51  0.0   0.1-    220821 F51  0.3+  0.0     220825 H36  0.4-  0.3+
110829 F51  0.4+  0.3+    220821 F51  0.0   0.0     220825 D29  0.6+  0.1-
110905 F51  0.2+  0.1-    220821 F51  0.0   0.1-    220825 D29  1.0+  0.6+
110905 F51  0.5-  0.2-    220821 033  0.0   0.0     220828 T12  0.0   0.0
150821 F51  0.1+  0.1+    220821 033  0.2+  0.0     220828 T12  0.0   0.0
150821 F51  0.0   0.3-    220821 033  0.1+  0.1-    220828 T12  0.0   0.0
150821 F51  0.1+  0.1-    220821 033  0.1-  0.1+    220828 033  0.1-  0.0
220820 F52  0.0   0.1+    220821 587  0.5-  0.2-    220828 033  0.1-  0.1+
220820 F52  0.0   0.0     220821 587 (1.0-  0.1+)   220828 033  0.2+  0.0
220820 F52  0.1+  0.1+    220821 587  0.5-  0.0     220829 F51  0.0   0.0
220820 F51  0.2-  0.1+    220821 L01  0.1+  0.1-    220829 F51  0.0   0.0
220820 F51  0.0   0.0     220821 L01  0.1+  0.0     220829 F51  0.1+  0.0
220820 A17  0.0   0.2+    220821 L01  0.0   0.2+    220830 033  0.5-  0.0
220820 A17  0.1-  0.0     220822 958  0.4-  0.8+    220830 033  0.3-  0.0
220820 204  0.1-  0.7+    220822 958  0.6-  0.5+    220830 033  0.4-  0.2+
220820 A17  0.2-  0.0     220822 958  0.4-  1.2+    220831 J43  0.1+  0.1+
220820 204  0.2-  0.1-    220822 H21  0.0   0.4-    220831 J43  0.4+  0.2+
220820 K83  0.0   0.3+    220822 H21  0.5-  0.3-    220831 J43  2.3-  0.0
220820 K83  0.2-  0.4-    220822 H21  0.3-  0.1-    220901 D29  0.3-  0.4-
220820 K83  0.2+  0.0     220822 H21  0.6-  0.1+    220901 D29  0.4-  0.3-
220820 K51  0.0   0.2+    220822 654  0.1+  0.1+    220902 F52  0.0   0.0
220820 K51  0.0   0.2-    220822 654  0.1+  0.2+    220902 F52  0.0   0.0
220820 K51  0.2+  0.3-    220822 654  0.1+  0.1+    220902 F52  0.0   0.0
220820 104  0.3-  0.5-    220822 654  0.1+  0.2+    220902 F52  0.0   0.1-
220820 104  0.1+  0.3-    220822 221  0.5-  0.2+    220914 H21  0.4+  0.9-
220820 104  0.1+  0.1-    220822 221  0.1+  0.2+    220914 H21  0.2+  0.6-
220821 654  0.0   0.0     220822 221  0.1-  0.2-    220914 H21  0.1+  0.9-
220821 658  0.1+  0.1+    220823 033  0.0   0.1+    220915 H21  0.0   0.5+
220821 658  0.1-  0.2+    220823 033  0.1+  0.0     220915 H21  0.2-  0.3+
220821 658  0.3-  0.0     220823 033  0.1+  0.1+    220915 H21  0.5-  0.4+
220821 658  0.4-  0.7+    220824 204  0.1+  0.2+    220917 H21  0.1+  0.7+
220821 658  0.2-  1.5+    220824 204  0.2+  0.1-    220917 H21  0.1-  0.5+
220821 654  0.1+  0.1+    220825 H36  0.3-  0.3+    220917 H21  0.0   0.7+

Ephemeris:
2022 QU1                 a,e,i = 1.25, 0.66, 39                  q = 0.4181
Date    TT    R. A. (2000) Decl.     Delta      r    Elong.  Phase     V
2023 12 24    20 05 52.9 -20 24 17   1.9517  1.1740    27.7    22.9    23.6
...
2024 01 08    20 49 46.9 -14 42 20   2.1617  1.3268    24.1    17.6    23.9
...
2024 01 16    21 09 45.7 -11 50 43   2.2666  1.4008    21.7    15.1    24.0
...
2024 01 22    21 23 37.1 -09 46 34   2.3407  1.4531    19.8    13.2    24.1
2024 01 23    21 25 50.9 -09 26 14   2.3526  1.4616    19.4    12.9    24.1
2024 01 24    21 28 03.4 -09 05 59   2.3644  1.4700    19.1    12.6    24.1
...
2024 01 30    21 40 53.9 -07 06 27   2.4325  1.5188    17.1    11.0    24.2
...
2024 02 07    21 57 05.2 -04 31 34   2.5154  1.5800    14.5     9.0    24.3
...
2024 02 22    22 25 12.3 +00 07 54   2.6445  1.6835    10.9     6.4    24.4

A. U. Tomatic                (C) Copyright 2024 MPC           M.P.E.C. 2024-B106





More information about the Iaude mailing list